User: anonymous   Login
Location: ??
(35.5052°N, 139.7262°E)
Time: 21:11:16
(UTC+00:00)
Language:

BREEZE-M DEB (TANK) - Orbit

View from above orbital plane
View from above orbital plane
View from above satellite
View from above satellite

Ground track
Ground track

The orbit data is extracted from the following two-line orbital elements,

1 35875U 09050C   21268.74985963  .00000107  00000-0  15229-3 0  9992
2 35875  49.3618 110.6771 5957425 214.9422  85.3923  4.02113304173778
Epoch (UTC): 25 September 2021 17:59:47
Eccentricity: 0.5957425
inclination: 49.3618°
perigee height: 375 km
apogee height: 20278 km
right ascension of ascending node: 110.6771°
argument of perigee: 214.9422°
revolutions per day: 4.02113304
mean anomaly at epoch: 85.3923°
orbit number at epoch: 17377

The dashed part of the orbit path shows where the satellite is in the earth's shadow,  

DLR